This is the latest recevied weather packets stored in our database for station/object W5GMO. If no packets are shown the sender has not sent any weather packets the latest 10 day(s).
| Time | Temp. | Humidity | Pressure | Rain* | Wind** | Luminosity | Snow |
|---|---|---|---|---|---|---|---|
| 1777672890 | 19.44° C | 34% | 1010.5 hPa | 0 mm | - | 177 W/m² | - |
| 1777672587 | 19.44° C | 34% | 1010.7 hPa | 0 mm | - | 191 W/m² | - |
| 1777672282 | 19.44° C | 34% | 1010.7 hPa | 0 mm | - | 207 W/m² | - |
| 1777671370 | 18.89° C | 34% | 1010.6 hPa | 0 mm | - | 251 W/m² | - |
| 1777671066 | 18.89° C | 35% | 1010.8 hPa | 0 mm | - | 268 W/m² | - |
| 1777670763 | 19.44° C | 34% | 1011 hPa | 0 mm | - | 287 W/m² | - |
| 1777670459 | 20° C | 33% | 1010.9 hPa | 0 mm | - | 302 W/m² | - |
| 1777670156 | 20° C | 34% | 1010.9 hPa | 0 mm | - | 317 W/m² | - |
| 1777669855 | 18.89° C | 34% | 1010.8 hPa | 0 mm | - | 335 W/m² | - |
| 1777669550 | 19.44° C | 34% | 1010.9 hPa | 0 mm | - | 351 W/m² | - |
| 1777669247 | 20° C | 33% | 1010.8 hPa | 0 mm | - | 369 W/m² | - |
| 1777668944 | 19.44° C | 33% | 1010.5 hPa | 0 mm | - | 386 W/m² | - |
| 1777668642 | 19.44° C | 33% | 1011 hPa | 0 mm | - | 401 W/m² | - |
| 1777668338 | 19.44° C | 34% | 1011 hPa | 0 mm | - | 414 W/m² | - |
| 1777667731 | 19.44° C | 33% | 1011.1 hPa | 0 mm | - | 443 W/m² | - |
| 1777667125 | 19.44° C | 32% | 1011.4 hPa | 0 mm | - | 472 W/m² | - |
| 1777666821 | 19.44° C | 32% | 1011.5 hPa | 0 mm | - | 487 W/m² | - |
| 1777665610 | 19.44° C | 29% | 1011.7 hPa | 0 mm | - | 543 W/m² | - |
| 1777665307 | 19.44° C | 29% | 1011.9 hPa | 0 mm | - | 555 W/m² | - |
| 1777665002 | 20° C | 28% | 1011.9 hPa | 0 mm | - | 570 W/m² | - |
| 1777662578 | 19.44° C | 32% | 1012.7 hPa | 0 mm | - | 657 W/m² | - |
| 1777660758 | 18.33° C | 32% | 1012.8 hPa | 0 mm | - | 701 W/m² | - |
| 1777660456 | 18.89° C | 32% | 1012.8 hPa | 0 mm | - | 719 W/m² | - |
| 1777659546 | 18.89° C | 33% | 1013.2 hPa | 0 mm | - | 745 W/m² | - |
| 1777659243 | 18.33° C | 33% | 1013.5 hPa | 0 mm | - | 754 W/m² | - |
* Rain latest hour (hover to see other rain measurements)
** Current wind speed in m/s (hover to see current wind gust speed)